Weather in Askarovo

Russia / Republic of Bashkortostan     53°20′10″N   58°30′41″E
temp.,
°C
wind,
m/s
gust,
m/s
humid.,
%
clouds,
%
prec.,
mm/h
press.,
hPa
HPBL,
m
24 september, fri
fri2423:00+4ese117293 0.0 102910
02:00+2e1175100 0.0 102910
05:00+2ene1172100 0.0 103010
08:00+4e1161100 0.0 102949
11:00+9se584198 0.0 1028704
14:00+12sse6732100 0.0 10261063
17:00+12sse673284 0.0 10251095
20:00+7se3346100 0.0 102526
25 september, sat
sat2523:00+5e225089 0.0 102516
02:00+4ene115261 0.0 102411
05:00+4ene2253100 0.0 102332
08:00+4ene2255100 0.0 102282
11:00+10ese6931100 0.0 1019637
14:00+14se71020100 0.0 10171008
17:00+14se5921100 0.0 1015640
20:00+12e31025100 0.0 1015308
26 september, sun
sun2623:00+10ene3729100 0.0 1015162
02:00+8nne3435100 0.0 101461
05:00+7ene3837100 0.0 1014241
08:00+7e4872100 0.0 1014427
11:00+7ne4762100 0.5 1014385
14:00+12e6833100 0.0 1012863
17:00+13ese7828100 0.0 10111454
20:00+7e71174100 0.2 10141042
27 september, mon
mon2723:00+5ne51191100 2.8 1013632
02:00+5ne81287100 0.8 1012747
05:00+3ne81369100 0.8 1012695
08:00+1ne91367100 0.0 1012801
11:00+3ne101263100 0.0 10121118
14:00+5ene101348100 0.0 10121381
17:00+4ene91454100 0.0 10141333
20:00+4ene91648100 0.0 10141333
28 september, tue
tue2823:00+3ene9165379 0.0 10151277
02:000ne9146648 0.0 1017961
05:00−1ne91583100 0.0 1018854
08:000ne9148099 0.1 1019952
11:00+2ne91262100 0.1 10201202
14:00+4nne81152100 0.0 10211429
17:00+5nne7104133 0.0 10211526
20:000nne486161 0.0 1023172